Location: Newark
(48.8833°N, 0.9236°W)
Time: 22:14:16
(UTC+00:00)

Tiros 1 despin weight - Pass Details

Date: 22 November 2019
Orbit: 594 x 642 km, 48.2° (Epoch: 10 December)

Event Time Altitude Azimuth Distance (km) Brightness Sun altitude
Rises 13:21:11 0° 246° (WSW) 2,823 ? 18.0°
Reaches altitude 10° 13:23:29 10° 244° (WSW) 1,923 ? 17.9°
Maximum altitude 13:27:50 63° 163° (SSE) 669 ? 17.6°
Drops below altitude 10° 13:32:13 10° 83° (E) 1,940 ? 17.3°
Sets 13:34:32 0° 80° (E) 2,850 ? 17.1°
